www.pogodaiklimat.ru

Погода и климат >> Архив погоды >> Россия >> Чукотка >> Билибино


ПОГОДА в Билибино

  • Прогноз погоды в Билибино
  • Монитор погоды в Билибино
  • Климат города

АРХИВ ПОГОДЫ в Билибино

Время (UTC), дата Ветер
(напр.,м/с)
 
Видим.   Явления Облачность Т
(С)
Тd
(С)
f
(%)
Тe
(С)
Тes
(С)
Комфортность P
(гПа)
Po
(гПа)
Тmin
(С)
Tmax
(С)
R
(мм)
R24
(мм)
S
(см)
21 10.10 штиль 0
{2}
10 км слабый снег 10/3 600 м
[Sc As op]
-9.2 -9.9 95 -10 -10 1016.1 980.0 -11.4 1 6
00 11.10 Ю 2
{3}
4000 м слабый снег 10/0
[As op]
-6.0 -8.3 84 -10 -10 1016.5 980.9
03 11.10 Ю 3
{5}
4000 м слабый снег 10/0
[As trans]
-6.4 -9.2 80 -12 -12 1017.1 981.5
06 11.10 штиль 0
{4}
50 км {снег} 10/9 600 м
[Sc Ac As]
-7.7 -10.3 82 -8 -8 1018.1 982.3
09 11.10 ЮЗ 1
{2}
20 км 10/10 600 м
[Sc]
-9.1 -11.1 85 -11 -11 1019.2 983.0 -5.8 0.9
12 11.10 ЮВ 1
{2}
20 км 10/10 600 м
[Sc]
-8.9 -10.9 85 -11 -11 1019.1 982.9
15 11.10 СВ 2
{3}
10 км снежные кристаллы 10/10 600 м
[Sc]
-9.9 -11.1 91 -14 -14 1018.6 982.4
18 11.10 СВ 3
{6}
10 км снежные кристаллы 10/10 600 м
[Sc]
-12.3 -13.6 90 -18 -18 1017.9 981.4
21 11.10 С 5
{7}
50 км {снег} 8/3 600 м
[Sc Ci ing]
-14.7 -16.0 90 -23 -23 1017.4 980.5 -14.7 0.2 6
00 12.10 В 1
{7}
50 км {снег} 10/3 600 м
[Sc Cs]
-12.3 -15.0 80 -15 -14 1014.4 978.0 -14.9
03 12.10 СВ 2
{3}
50 км 10/6 600 м
[Sc Ac As]
-7.2 -10.6 77 -12 -11 1010.0 974.5
06 12.10 СВ 6
{10}
50 км 10/3 600 м
[Sc Ac As]
-4.4 -8.7 72 -12 -12 1006.0 970.9
09 12.10 СВ 6-10
{12}
20 км 10/10 600 м
[Sc]
-3.4 -8.1 70 -11 -11 1001.4 966.7 -3.4
12 12.10 СВ 6
{12}
10 км снежные кристаллы 10/9 600 м
[Sc As op]
-1.9 -5.0 79 -9 -9 996.4 961.9
15 12.10 СВ 5
{11}
10 км снежные кристаллы 10/8 600 м
[Sc As op]
-0.4 -4.6 73 -6 -6 991.5 957.5
18 12.10 СВ 5
{11}
10 км снежные кристаллы 10/8 600 м
[Sc As op]
+0.1 -3.6 76 -6 -6 988.1 954.3
21 12.10 СВ 7-11
{13}
10 км снежные кристаллы 10/6 1000 м
[Sc As trans]
+0.2 -3.8 74 -7 -7 985.0 951.3 -4.5 0.2 6
00 13.10 СВ 5
{12}
20 км снежные кристаллы 10/8 600 м
[Sc Cs]
+1.3 -3.6 70 -4 -4 982.4 949.0
03 13.10 СВ 5
{9}
20 км снежные кристаллы 10/8 600 м
[Sc Cs]
+1.1 -3.4 72 -4 -4 980.7 947.3
06 13.10 СВ 1
{10}
4000 м слабый снег 10/4 600 м
[Sc As op]
-0.4 -1.9 90 -3 -3 981.4 947.7
09 13.10 штиль 0
{4}
20 км снежные кристаллы 10/6 600 м
[Sc Cs]
-3.5 -4.0 96 -5 -5 982.0 947.9 +1.4 0.6
12 13.10 штиль 0
{2}
20 км {снег} 8/4 600 м
[Sc Ac As Ci fib]
-2.8 -3.2 97 -4 -4 982.9 949.0
15 13.10 СВ 2
{3}
20 км снежные кристаллы 10/3 600 м
[Sc Ac trans Cs]
-4.2 -5.1 93 -9 -9 984.3 950.0
18 13.10 СВ 2
{5}
20 км {снег} 8/4 600 м
[Sc Ac lent Ci fib]
-7.4 -8.3 93 -12 -12 986.1 951.4
21 13.10 штиль 0
{4}
50 км 9/4 600 м
[Sc Ci fib]
-9.9 -10.7 94 -10 -10 987.5 952.4 -10.2 0.2 11
00 14.10 ЮЗ 1
{2}
50 км 10/3 600 м
[Sc Ac trans Cs]
-6.2 -8.1 86 -9 -8 988.0 953.3
03 14.10 Ю 2
{3}
50 км 10/4 600 м
[Sc Ac trans Cs]
-5.5 -6.9 90 -10 -10 988.8 954.3
06 14.10 штиль 0
{3}
50 км 10/4 600 м
[Sc Ac As]
-5.9 -6.6 95 -7 -7 990.6 955.8
09 14.10 штиль 0
{1}
20 км 10/8 600 м
[Sc Ac As]
-5.9 -6.3 97 -7 -7 992.0 957.2 -4.8
12 14.10 С 1
{2}
20 км 10/8 600 м
[Sc Ac As]
-5.6 -6.3 95 -8 -8 993.3 958.5
15 14.10 штиль 0
{2}
20 км 10/8 600 м
[Sc Ac As]
-5.0 -5.7 95 -6 -6 994.5 959.7
18 14.10 штиль 0
{1}
20 км 10/8 600 м
[Sc Ac As]
-4.9 -5.5 96 -6 -6 995.8 961.0
21 14.10 штиль 0
{1}
10 км слабый снег 10/0
[As op]
-4.4 -5.0 96 -6 -6 996.7 962.0 -6.0 0.3 12
00 15.10 штиль 0
{1}
2000 м снег 10/0
[As op]
-3.5 -5.3 87 -5 -4 996.9 962.3
03 15.10 штиль 0
{1}
10 км снежные кристаллы 10/1 600 м
[Sc As op]
-2.3 -3.8 89 -3 -3 997.2 962.7
06 15.10 штиль 0
{2}
50 км {снег} 10/9 1000 м
[Sc]
-3.4 -3.8 97 -5 -5 998.8 964.2
09 15.10 СВ 2
{5}
20 км 10/10 1000 м
[Sc]
-2.1 -4.2 86 -6 -6 1000.2 965.6 -1.6 3
12 15.10 ЮВ 1
{5}
20 км 10/6 600 м
[Sc Ac As]
-4.0 -4.9 93 -6 -6 1001.9 967.0
15 15.10 В 1
{3}
20 км 10/5 600 м
[Sc Ac As]
-5.6 -6.7 92 -8 -8 1003.0 967.9
18 15.10 штиль 0
{3}
20 км 10/5 600 м
[Sc Ac As]
-6.0 -6.8 94 -7 -7 1004.5 969.3
21 15.10 СВ 2
{5}
4000 м слабый снег 10/3 1000 м
[Sc As trans]
-2.4 -5.0 82 -6 -6 1005.3 970.5 -7.7 0.2 16
00 16.10 СВ 5
{9}
50 км {снег} 4/4 600 м
[Sc]
-0.7 -4.9 73 -7 -7 1006.0 971.5
03 16.10 СВ 5
{9}
50 км 9/9 1000 м
[Sc]
-0.3 -5.2 69 -6 -6 1006.8 972.3
06 16.10 СВ 4
{7}
50 км 10/10 600 м
[Sc]
-0.9 -5.1 73 -6 -6 1008.4 973.6
09 16.10 СВ 5
{9}
20 км 9/9 600 м
[Sc]
-0.4 -4.8 72 -6 -6 1009.5 974.8 0.0 0.0
12 16.10 СВ 6
{10}
20 км позёмок {метель} 8/8 600 м
[Sc]
-1.8 -6.4 71 -9 -9 1011.0 976.2
15 16.10 СВ 5
{10}
20 км {метель} 9/9 600 м
[Sc]
-2.0 -6.2 73 -8 -8 1011.7 976.7
18 16.10 СВ 4
{10}
20 км {метель} 4/4 600 м
[Sc]
-3.5 -9.1 65 -9 -9 1012.9 977.8
21 16.10 СВ 5
{8}
50 км 8/8 1000 м
[Sc]
-4.0 -8.1 73 -11 -11 1013.9 978.6 -4.1 13
00 17.10 СВ 5
{9}
50 км {снег} 4/4 600 м
[Sc]
-3.8 -10.5 60 -10 -10 1014.4 979.1 -4.2
03 17.10 СВ 4
{9}
50 км 3/3 600 м
[Sc]
-4.1 -10.0 63 -10 -10 1015.2 979.8
06 17.10 С 3
{6}
50 км 3/3 600 м
[Sc]
-7.8 -11.4 75 -13 -13 1016.8 980.9
09 17.10 ЮЗ 1
{5}
20 км 4/4 600 м
[Sc]
-13.0 -14.3 90 -15 -15 1018.6 982.0 -3.0 0.0
12 17.10 СВ 1
{2}
20 км 10/3 600 м
[Sc Ac trans Cs]
-15.1 -16.4 90 -18 -18 1019.9 982.9
15 17.10 штиль 0
{1}
20 км 10/3 600 м
[Sc Cs]
-17.7 -19.6 85 -18 -18 1021.0 983.5

 

Местоположение метеостанции Билибино (Чукотка, Россия): широта 68.05 долгота 166.40 высота над уровнем моря 280 м.

В архиве по умолчанию представлена погода в Билибино за последнюю неделю. Архивные данные за месяц целиком и за предыдущие месяцы, начиная с января 2011 года, Вы можете получить, выбрав интересующий диапазон дат из раскрывающегося списка и нажав кнопку "Ввод!".

Внимание! Время в таблицах - всемирное. Для получения местного времени необходимо прибавить поправку, которая в Билибино равна 12 ч.

Смотрите также архив погоды в соседних городах и на ближайших метеорологических станциях:

Погода на Островном (Чукотка, Россия) (96 км)
Погода в Илирнее (Чукотка, Россия) (109 км)
Погода в Раучуе (Чукотка, Россия) (161 км)
Погода в Баимке (Чукотка, Россия) (194 км)
Погода в Чауне (Чукотка, Россия) (198 км)
Погода в Анюйске (Чукотка, Россия) (205 км)
Погода на Айон Острове (Чукотка, Россия) (217 км)
Погода в Константиновской (Чукотка, Россия) (220 км)
Погода в Черском (Якутия, Россия) (222 км)
Погода в Певеке (Чукотка, Россия) (238 км)

Пояснения к столбцам:

Ветер - указаны скорость ветра в м/с - средняя за 10 мин, порывы в срок и между сроками (в фигурных скобках) и направление, откуда дует ветер: С - северный, СВ - северо-восточный, В - восточный, ЮВ - юго-восточный, Ю - южный, ЮЗ - юго-западный, З - западный, СЗ - северо-западный.
Видимость - горизонтальная дальность видимости в метрах или километрах. При видимости от 1 до 10 км при отсутствии осадков обычно наблюдается дымка, при ухудшении видимости до 1 км и менее - туман. В сухую погоду видимость может ухудшаться дымом, пылью или мглою.
Явления - указаны атмосферные явления, наблюдавшиеся в срок или в последний час перед сроком; фигурными скобками обозначены явления, наблюдавшиеся между сроками (за 1-3 часа до срока); квадратными скобками обозначены град или гололедные отложения с указанием их диаметра в мм.
Облачность - указаны через наклонную черту общая и нижняя облачность в баллах и высота нижней границы облаков в метрах; квадратными скобками обозначены формы облаков: Ci - перистые, Cs - перисто-слоистые, Cc - перисто-кучевые, Ac - высококучевые, As - высокослоистые, Sc - слоисто-кучевые, Ns - слоисто-дождевые, Cu - кучевые, Cb - кучево-дождевые. Подробнее классификацию облаков см. в Атласе облаков (PDF).
T - Температура воздуха - температура, измеренная на высоте 2 м над землей.
Td - Температура точки росы - температура, при понижении до которой содержащийся в воздухе водяной пар достигнет насыщения.
f - Относительная влажность воздуха - влажноcть воздуха, измеренная на высоте 2 м над землей.
Te - Эффективная температура - температура, которую ощущает одетый по сезону человек в тени. Характеристика душности погоды. При расчете учитывается влияние влажности воздуха и скорости ветра на теплоощущения человека.
Tes - Эффективная температура на солнце - температура, которую ощущает человек, с поправкой на солнечный нагрев. Характеристика знойности погоды. Зависит от высоты солнца над горизонтом, облачности и скорости ветра. Ночью, в пасмурную погоду, а также при ветре 12 м/с и более поправка равна нулю.
P - Атмосферное давление - приведенное к уровню моря атмосферное давление.
Po - Атмосферное давление - измеренное на уровне метеостанции атмосферное давление.
Tmin - Минимальная температура - минимум температуры воздуха на высоте 2 м над землей.
Tmax - Максимальная температура - максимум температуры воздуха на высоте 2 м над землей.
R - Количество осадков - Количество выпавших осадков за период времени, мм. При наведении курсора мыши на число - период времени, за который выпало указанное количество осадков.
R24 - Количество осадков - Количество выпавших осадков за 24 часа, мм.
S - Снежный покров - Высота снежного покрова, см. При наведении курсора мыши на число - состояние снежного покрова и степень покрытия местности в баллах.